RYR20FV EGCC-LOWW

Flight info

Callsign RYR20FV
Flight time 2h 5m
Altitude 35000
Route SONEX L975 DESIG L603 LAMSO DCT EVELI DCT RKN DCT KUMER DCT GALMA DCT TALEG L620 PIKIB DCT OMELO DCT EVIKU DCT BITSI DCT MIKOV MIKOV8W
Aircraft A320/M-SDE3FGHIRWY/LB1

Departure

Time 2026-05-07 14:02
Airport Manchester Airport (EGCC)

Arrival

Time 2026-05-07 16:07
Airport Vienna International Airport (LOWW)
Time Latitude Longitude Altitude Speed Heading
2026-05-07 13:24 53.36038 -2.26888 248 ft 0 kts 313°
2026-05-07 13:52 53.36024 -2.26861 247 ft 4 kts 303°
2026-05-07 13:53 53.36013 -2.26822 247 ft 4 kts 280°
2026-05-07 13:53 53.36014 -2.26781 247 ft 4 kts 242°
2026-05-07 13:53 53.36018 -2.26769 247 ft 0 kts 231°
2026-05-07 13:56 53.36017 -2.26771 247 ft 1 kts 231°
2026-05-07 13:57 53.35998 -2.26785 247 ft 4 kts 178°
2026-05-07 13:57 53.35986 -2.26764 248 ft 0 kts 120°
2026-05-07 13:57 53.35977 -2.26741 250 ft 5 kts 128°
2026-05-07 13:57 53.35960 -2.26722 253 ft 6 kts 156°
2026-05-07 13:58 53.35943 -2.26716 255 ft 0 kts 171°
2026-05-07 13:58 53.35910 -2.26707 258 ft 10 kts 171°
2026-05-07 13:59 53.35837 -2.26687 265 ft 11 kts 170°
2026-05-07 13:59 53.35734 -2.26656 266 ft 17 kts 170°
2026-05-07 13:59 53.35616 -2.26624 266 ft 18 kts 178°
2026-05-07 13:59 53.35512 -2.26746 262 ft 20 kts 231°
2026-05-07 14:00 53.35417 -2.26940 257 ft 23 kts 230°
2026-05-07 14:00 53.35326 -2.27129 255 ft 19 kts 231°
2026-05-07 14:00 53.35219 -2.27228 246 ft 21 kts 189°
2026-05-07 14:00 53.35062 -2.27280 240 ft 24 kts 191°
2026-05-07 14:01 53.34977 -2.27394 239 ft 26 kts 230°
2026-05-07 14:01 53.34705 -2.27947 234 ft 93 kts 231°
2026-05-07 14:01 53.34177 -2.29037 214 ft 145 kts 230°
2026-05-07 14:01 53.33496 -2.30480 541 ft 159 kts 227°
2026-05-07 14:02 53.32807 -2.31946 1148 ft 161 kts 230°
2026-05-07 14:02 53.32111 -2.33428 1611 ft 169 kts 232°
2026-05-07 14:02 53.31550 -2.35299 1765 ft 194 kts 250°
2026-05-07 14:02 53.31379 -2.37674 1950 ft 219 kts 271°
2026-05-07 14:03 53.31807 -2.40253 2222 ft 242 kts 295°
2026-05-07 14:03 53.32909 -2.42496 2590 ft 264 kts 322°
2026-05-07 14:03 53.34602 -2.43765 3187 ft 274 kts 350°
2026-05-07 14:03 53.36519 -2.43839 3907 ft 278 kts
2026-05-07 14:04 53.38451 -2.43699 4668 ft 280 kts
2026-05-07 14:04 53.40390 -2.43952 5392 ft 281 kts 342°
2026-05-07 14:04 53.42250 -2.44911 6188 ft 280 kts 339°
2026-05-07 14:04 53.44168 -2.45540 6856 ft 286 kts 360°
2026-05-07 14:05 53.46120 -2.44845 7465 ft 292 kts 26°
2026-05-07 14:05 53.47726 -2.42782 8089 ft 294 kts 53°
2026-05-07 14:05 53.48660 -2.39771 8694 ft 293 kts 79°
2026-05-07 14:05 53.48750 -2.36404 9313 ft 289 kts 104°
2026-05-07 14:06 53.48371 -2.33081 9959 ft 293 kts 98°
2026-05-07 14:06 53.48503 -2.29613 10385 ft 309 kts 79°
2026-05-07 14:06 53.49106 -2.26016 10501 ft 330 kts 77°
2026-05-07 14:06 53.49702 -2.22190 10629 ft 348 kts 81°
2026-05-07 14:07 53.50118 -2.18119 10918 ft 358 kts 85°
2026-05-07 14:07 53.50426 -2.13948 11429 ft 362 kts 86°
2026-05-07 14:07 53.50728 -2.09736 11992 ft 364 kts 85°
2026-05-07 14:07 53.51065 -2.05497 12552 ft 367 kts 84°
2026-05-07 14:08 53.51451 -2.01239 13108 ft 370 kts 82°
2026-05-07 14:08 53.51877 -1.96959 13685 ft 373 kts 82°
2026-05-07 14:08 53.52280 -1.92637 14179 ft 375 kts 87°
2026-05-07 14:08 53.52289 -1.88265 14658 ft 375 kts 97°
2026-05-07 14:09 53.51811 -1.83967 15130 ft 375 kts 108°
2026-05-07 14:09 53.51068 -1.79746 15595 ft 378 kts 109°
2026-05-07 14:09 53.50318 -1.75507 16051 ft 381 kts 109°
2026-05-07 14:09 53.49558 -1.71233 16528 ft 383 kts 109°
2026-05-07 14:10 53.48789 -1.66930 16989 ft 386 kts 109°
2026-05-07 14:10 53.48015 -1.62596 17463 ft 389 kts 109°
2026-05-07 14:10 53.47238 -1.58230 17948 ft 392 kts 108°
2026-05-07 14:10 53.46453 -1.53828 18409 ft 395 kts 108°
2026-05-07 14:11 53.45663 -1.49401 18849 ft 397 kts 108°
2026-05-07 14:11 53.44866 -1.44945 19323 ft 399 kts 108°
2026-05-07 14:11 53.44061 -1.40472 19806 ft 401 kts 108°
2026-05-07 14:11 53.43250 -1.35982 20277 ft 404 kts 109°
2026-05-07 14:12 53.42431 -1.31470 20716 ft 406 kts 109°
2026-05-07 14:12 53.41607 -1.26931 21139 ft 408 kts 109°
2026-05-07 14:12 53.40779 -1.22376 21555 ft 410 kts 109°
2026-05-07 14:12 53.39960 -1.17858 21942 ft 412 kts 109°
2026-05-07 14:13 53.39114 -1.13198 22338 ft 414 kts 109°
2026-05-07 14:13 53.38284 -1.08643 22714 ft 415 kts 109°
2026-05-07 14:13 53.37437 -1.04007 23086 ft 417 kts 109°
2026-05-07 14:13 53.36585 -0.99355 23453 ft 419 kts 109°
2026-05-07 14:14 53.35724 -0.94684 23777 ft 421 kts 109°
2026-05-07 14:14 53.34856 -0.89995 24076 ft 422 kts 109°
2026-05-07 14:14 53.33985 -0.85295 24379 ft 424 kts 109°
2026-05-07 14:14 53.33109 -0.80579 24680 ft 425 kts 109°
2026-05-07 14:15 53.32228 -0.75856 24973 ft 426 kts 109°
2026-05-07 14:15 53.31343 -0.71119 25264 ft 427 kts 109°
2026-05-07 14:15 53.30455 -0.66376 25552 ft 428 kts 109°
2026-05-07 14:15 53.29564 -0.61627 25839 ft 429 kts 109°
2026-05-07 14:16 53.28666 -0.56860 26127 ft 430 kts 109°
2026-05-07 14:16 53.27764 -0.52084 26427 ft 432 kts 109°
2026-05-07 14:16 53.26857 -0.47292 26734 ft 432 kts 109°
2026-05-07 14:16 53.25953 -0.42517 27168 ft 430 kts 109°
2026-05-07 14:17 53.25049 -0.37768 27580 ft 428 kts 109°
2026-05-07 14:17 53.24147 -0.33051 28048 ft 425 kts 109°
2026-05-07 14:17 53.23253 -0.28372 28544 ft 422 kts 109°
2026-05-07 14:17 53.22364 -0.23716 28984 ft 420 kts 108°
2026-05-07 14:18 53.21481 -0.19087 29411 ft 418 kts 108°
2026-05-07 14:18 53.20598 -0.14477 29834 ft 416 kts 109°
2026-05-07 14:18 53.19715 -0.09899 30235 ft 414 kts 109°
2026-05-07 14:18 53.18832 -0.05338 30580 ft 412 kts 109°
2026-05-07 14:19 53.17950 -0.00801 30914 ft 411 kts 109°
2026-05-07 14:19 53.17066 0.03736 31209 ft 411 kts 108°
2026-05-07 14:19 53.16187 0.08252 31523 ft 410 kts 108°
2026-05-07 14:19 53.15306 0.12771 31853 ft 409 kts 108°
2026-05-07 14:20 53.14430 0.17264 32183 ft 408 kts 108°
2026-05-07 14:20 53.13556 0.21744 32513 ft 407 kts 108°
2026-05-07 14:20 53.12679 0.26222 32831 ft 406 kts 109°
2026-05-07 14:20 53.11800 0.30680 33146 ft 405 kts 109°
2026-05-07 14:21 53.10922 0.35125 33460 ft 404 kts 109°
2026-05-07 14:21 53.10044 0.39552 33756 ft 403 kts 109°
2026-05-07 14:21 53.09165 0.43971 34042 ft 402 kts 109°
2026-05-07 14:21 53.08288 0.48376 34261 ft 401 kts 109°
2026-05-07 14:22 53.07410 0.52790 34417 ft 402 kts 109°
2026-05-07 14:22 53.06528 0.57213 34552 ft 404 kts 109°
2026-05-07 14:22 53.05641 0.61646 34697 ft 405 kts 109°
2026-05-07 14:22 53.04762 0.66022 34837 ft 405 kts 109°
2026-05-07 14:23 53.03854 0.70527 34999 ft 406 kts 109°
2026-05-07 14:23 53.02061 0.79417 35085 ft 412 kts 109°
2026-05-07 14:24 53.00212 0.88534 35094 ft 420 kts 109°
2026-05-07 14:24 52.98335 0.97750 35088 ft 422 kts 109°
2026-05-07 14:25 52.97039 1.07245 35096 ft 423 kts 101°
2026-05-07 14:25 52.95939 1.16830 35095 ft 423 kts 101°
2026-05-07 14:26 52.94824 1.26418 35099 ft 423 kts 101°
2026-05-07 14:26 52.93888 1.34383 35098 ft 424 kts 102°
2026-05-07 14:27 52.92761 1.43974 35106 ft 424 kts 102°
2026-05-07 14:27 52.91628 1.53565 35105 ft 424 kts 102°
2026-05-07 14:28 52.90480 1.63160 35106 ft 425 kts 102°
2026-05-07 14:28 52.89322 1.72768 35106 ft 426 kts 102°
2026-05-07 14:29 52.88157 1.82386 35107 ft 426 kts 102°
2026-05-07 14:29 52.86979 1.92001 35113 ft 427 kts 102°
2026-05-07 14:30 52.85795 2.01626 35110 ft 427 kts 102°
2026-05-07 14:30 52.84600 2.11255 35110 ft 427 kts 102°
2026-05-07 14:31 52.83402 2.20886 35112 ft 428 kts 102°
2026-05-07 14:31 52.82189 2.30530 35113 ft 429 kts 102°
2026-05-07 14:32 52.80968 2.40176 35115 ft 429 kts 102°
2026-05-07 14:32 52.79740 2.49828 35118 ft 429 kts 102°
2026-05-07 14:33 52.78552 2.59432 35113 ft 430 kts 101°
2026-05-07 14:33 52.77419 2.69139 35112 ft 431 kts 101°
2026-05-07 14:34 52.76288 2.78860 35115 ft 431 kts 101°
2026-05-07 14:34 52.75130 2.88576 35117 ft 432 kts 101°
2026-05-07 14:35 52.73956 2.98300 35121 ft 432 kts 101°
2026-05-07 14:35 52.72772 3.08023 35113 ft 433 kts 101°
2026-05-07 14:36 52.71574 3.17763 35103 ft 434 kts 102°
2026-05-07 14:36 52.70367 3.27523 35099 ft 435 kts 102°
2026-05-07 14:37 52.69156 3.37300 35101 ft 436 kts 102°
2026-05-07 14:37 52.67317 3.51998 35108 ft 437 kts 102°
2026-05-07 14:38 52.66079 3.61808 35100 ft 438 kts 102°
2026-05-07 14:38 52.64824 3.71632 35101 ft 439 kts 102°
2026-05-07 14:39 52.63557 3.81470 35111 ft 439 kts 102°
2026-05-07 14:39 52.62287 3.91305 35116 ft 440 kts 103°
2026-05-07 14:40 52.61010 4.01148 35099 ft 440 kts 103°
2026-05-07 14:40 52.59726 4.10951 35091 ft 442 kts 103°
2026-05-07 14:41 52.58412 4.20914 35087 ft 444 kts 103°
2026-05-07 14:41 52.57094 4.30831 35095 ft 444 kts 103°
2026-05-07 14:42 52.55761 4.40752 35087 ft 445 kts 103°
2026-05-07 14:42 52.54431 4.50686 35098 ft 445 kts 103°
2026-05-07 14:43 52.53086 4.60605 35088 ft 445 kts 103°
2026-05-07 14:43 52.51733 4.70526 35095 ft 445 kts 103°
2026-05-07 14:44 52.50371 4.80448 35101 ft 445 kts 103°
2026-05-07 14:44 52.49000 4.90358 35100 ft 445 kts 104°
2026-05-07 14:45 52.47619 5.00258 35086 ft 446 kts 104°
2026-05-07 14:45 52.46227 5.10174 35079 ft 447 kts 104°
2026-05-07 14:46 52.44829 5.20107 35080 ft 448 kts 103°
2026-05-07 14:46 52.43420 5.30058 35084 ft 448 kts 104°
2026-05-07 14:47 52.42040 5.39701 35086 ft 449 kts 104°
2026-05-07 14:47 52.40602 5.49650 35082 ft 449 kts 104°
2026-05-07 14:48 52.39157 5.59623 35078 ft 451 kts 104°
2026-05-07 14:48 52.37705 5.69614 35059 ft 452 kts 104°
2026-05-07 14:49 52.36241 5.79614 35052 ft 453 kts 104°
2026-05-07 14:49 52.34765 5.89636 35064 ft 453 kts 104°
2026-05-07 14:50 52.33277 5.99647 35063 ft 453 kts 104°
2026-05-07 14:50 52.31775 6.09661 35070 ft 454 kts 104°
2026-05-07 14:51 52.30272 6.19673 35068 ft 454 kts 104°
2026-05-07 14:51 52.28758 6.29668 35067 ft 453 kts 105°
2026-05-07 14:52 52.27233 6.39668 35067 ft 454 kts 105°
2026-05-07 14:52 52.25702 6.49654 35063 ft 454 kts 105°
2026-05-07 14:53 52.24161 6.59642 35062 ft 454 kts 105°
2026-05-07 14:53 52.22617 6.69623 35063 ft 454 kts 105°
2026-05-07 14:54 52.21058 6.79614 35071 ft 454 kts 105°
2026-05-07 14:54 52.19489 6.89587 35071 ft 454 kts 105°
2026-05-07 14:55 52.17909 6.99565 35070 ft 455 kts 105°
2026-05-07 14:55 52.16328 7.09472 35072 ft 455 kts 105°
2026-05-07 14:56 52.14733 7.19446 35080 ft 455 kts 105°
2026-05-07 14:56 52.13139 7.29417 35087 ft 455 kts 105°
2026-05-07 14:57 52.11527 7.39385 35090 ft 456 kts 105°
2026-05-07 14:57 52.09904 7.49354 35093 ft 456 kts 105°
2026-05-07 14:58 52.08273 7.59310 35098 ft 456 kts 105°
2026-05-07 14:58 52.06630 7.69264 35100 ft 456 kts 105°
2026-05-07 14:59 52.04980 7.79211 35097 ft 456 kts 105°
2026-05-07 14:59 52.03323 7.89150 35100 ft 456 kts 105°
2026-05-07 15:00 52.01660 7.99078 35104 ft 456 kts 105°
2026-05-07 15:00 51.99984 8.09008 35095 ft 456 kts 105°
2026-05-07 15:01 51.98298 8.18929 35095 ft 456 kts 105°
2026-05-07 15:01 51.96607 8.28860 35102 ft 457 kts 105°
2026-05-07 15:02 51.94912 8.38764 35101 ft 456 kts 105°
2026-05-07 15:02 51.93206 8.48664 35102 ft 456 kts 105°
2026-05-07 15:03 51.91490 8.58542 35100 ft 455 kts 105°
2026-05-07 15:03 51.89762 8.68411 35096 ft 456 kts 105°
2026-05-07 15:04 51.88042 8.78217 35099 ft 456 kts 106°
2026-05-07 15:04 51.86295 8.88135 35100 ft 455 kts 106°
2026-05-07 15:05 51.84556 8.97959 35095 ft 454 kts 106°
2026-05-07 15:05 51.82805 9.07780 35097 ft 454 kts 106°
2026-05-07 15:06 51.81059 9.17511 35092 ft 454 kts 106°
2026-05-07 15:06 51.79295 9.27314 35091 ft 454 kts 106°
2026-05-07 15:07 51.77525 9.37104 35088 ft 454 kts 106°
2026-05-07 15:07 51.75744 9.46874 35085 ft 454 kts 106°
2026-05-07 15:08 51.73952 9.56629 35081 ft 453 kts 107°
2026-05-07 15:08 51.72154 9.66375 35078 ft 454 kts 107°
2026-05-07 15:09 51.70357 9.76124 35082 ft 454 kts 107°
2026-05-07 15:09 51.68546 9.85865 35082 ft 454 kts 107°
2026-05-07 15:10 51.66723 9.95603 35077 ft 454 kts 107°
2026-05-07 15:10 51.64892 10.05344 35081 ft 454 kts 107°
2026-05-07 15:11 51.63053 10.15075 35081 ft 454 kts 107°
2026-05-07 15:11 51.61205 10.24793 35086 ft 454 kts 108°
2026-05-07 15:12 51.59345 10.34495 35082 ft 454 kts 108°
2026-05-07 15:12 51.57480 10.44191 35077 ft 454 kts 108°
2026-05-07 15:13 51.55926 10.52236 35083 ft 453 kts 108°
2026-05-07 15:13 51.54049 10.61907 35082 ft 453 kts 108°
2026-05-07 15:14 51.52277 10.71624 35076 ft 454 kts 106°
2026-05-07 15:14 51.50677 10.81434 35075 ft 454 kts 105°
2026-05-07 15:15 51.49082 10.91254 35082 ft 455 kts 105°
2026-05-07 15:15 51.47439 11.01043 35082 ft 455 kts 106°
2026-05-07 15:16 51.45757 11.10828 35083 ft 455 kts 106°
2026-05-07 15:16 51.44060 11.20606 35086 ft 455 kts 106°
2026-05-07 15:17 51.42368 11.30372 35085 ft 455 kts 106°
2026-05-07 15:17 51.40676 11.40123 35082 ft 454 kts 106°
2026-05-07 15:18 51.38648 11.49678 35079 ft 453 kts 113°
2026-05-07 15:18 51.36254 11.59007 35078 ft 453 kts 113°
2026-05-07 15:19 51.33855 11.68348 35076 ft 454 kts 113°
2026-05-07 15:19 51.31471 11.77622 35081 ft 454 kts 114°
2026-05-07 15:20 51.29052 11.86948 35076 ft 454 kts 113°
2026-05-07 15:20 51.26633 11.96262 35080 ft 454 kts 113°
2026-05-07 15:21 51.24207 12.05570 35072 ft 454 kts 114°
2026-05-07 15:21 51.21773 12.14873 35072 ft 454 kts 114°
2026-05-07 15:22 51.19330 12.24166 35072 ft 454 kts 114°
2026-05-07 15:22 51.16876 12.33444 35070 ft 454 kts 114°
2026-05-07 15:23 51.14416 12.42716 35061 ft 455 kts 114°
2026-05-07 15:23 51.11944 12.51981 35066 ft 455 kts 114°
2026-05-07 15:24 51.09483 12.61250 35066 ft 455 kts 111°
2026-05-07 15:24 51.07677 12.70917 35066 ft 456 kts 107°
2026-05-07 15:25 51.05937 12.80540 35065 ft 456 kts 107°
2026-05-07 15:25 51.04167 12.90227 35054 ft 456 kts 108°
2026-05-07 15:26 51.02398 12.99914 35046 ft 457 kts 108°
2026-05-07 15:26 51.00620 13.09607 35045 ft 457 kts 108°
2026-05-07 15:27 50.98838 13.19285 35046 ft 457 kts 108°
2026-05-07 15:27 50.97040 13.28972 35047 ft 457 kts 108°
2026-05-07 15:28 50.95260 13.38649 35036 ft 457 kts 108°
2026-05-07 15:28 50.93537 13.48358 35041 ft 457 kts 108°
2026-05-07 15:29 50.91781 13.58031 35040 ft 457 kts 109°
2026-05-07 15:29 50.89960 13.67669 35037 ft 456 kts 109°
2026-05-07 15:30 50.88127 13.77295 35037 ft 456 kts 109°
2026-05-07 15:30 50.86296 13.86915 35030 ft 457 kts 109°
2026-05-07 15:31 50.84267 13.96337 35022 ft 453 kts 118°
2026-05-07 15:31 50.80729 14.04441 35015 ft 446 kts 137°
2026-05-07 15:32 50.76182 14.11069 35012 ft 445 kts 140°
2026-05-07 15:32 50.71608 14.17672 34991 ft 446 kts 140°
2026-05-07 15:33 50.67034 14.24269 34999 ft 446 kts 140°
2026-05-07 15:33 50.62444 14.30844 34993 ft 446 kts 140°
2026-05-07 15:34 50.57854 14.37403 34997 ft 446 kts 140°
2026-05-07 15:34 50.53258 14.43949 34999 ft 446 kts 140°
2026-05-07 15:35 50.48645 14.50500 34997 ft 446 kts 141°
2026-05-07 15:35 50.44061 14.57050 35004 ft 445 kts 140°
2026-05-07 15:36 50.39613 14.63796 34993 ft 445 kts 138°
2026-05-07 15:36 50.35219 14.70593 34994 ft 444 kts 139°
2026-05-07 15:37 50.30790 14.77350 34993 ft 444 kts 139°
2026-05-07 15:37 50.26342 14.84041 34993 ft 444 kts 139°
2026-05-07 15:38 50.21881 14.90708 34980 ft 443 kts 140°
2026-05-07 15:38 50.17440 14.97357 34992 ft 442 kts 140°
2026-05-07 15:39 50.13002 15.04003 34992 ft 442 kts 140°
2026-05-07 15:39 50.08566 15.10624 34992 ft 442 kts 140°
2026-05-07 15:40 50.04120 15.17213 34992 ft 441 kts 140°
2026-05-07 15:40 49.99671 15.23793 34978 ft 441 kts 141°
2026-05-07 15:41 49.95239 15.30348 34997 ft 440 kts 141°
2026-05-07 15:41 49.90813 15.36886 34993 ft 439 kts 141°
2026-05-07 15:42 49.86385 15.43411 34995 ft 439 kts 141°
2026-05-07 15:42 49.81955 15.49903 34974 ft 439 kts 141°
2026-05-07 15:43 49.77505 15.56387 34944 ft 439 kts 141°
2026-05-07 15:43 49.73067 15.62847 34971 ft 438 kts 141°
2026-05-07 15:44 49.68670 15.69255 34980 ft 437 kts 141°
2026-05-07 15:44 49.64246 15.75683 34982 ft 437 kts 141°
2026-05-07 15:45 49.59829 15.82077 34959 ft 431 kts 141°
2026-05-07 15:45 49.57671 15.85201 34644 ft 424 kts 141°
2026-05-07 15:45 49.55476 15.88358 33368 ft 439 kts 142°
2026-05-07 15:46 49.50978 15.94811 31744 ft 438 kts 142°
2026-05-07 15:46 49.48767 15.97994 31227 ft 433 kts 142°
2026-05-07 15:46 49.46583 16.01144 30763 ft 427 kts 142°
2026-05-07 15:47 49.44448 16.04223 30529 ft 414 kts 143°
2026-05-07 15:47 49.42375 16.07209 29760 ft 405 kts 143°
2026-05-07 15:47 49.40327 16.10139 28866 ft 401 kts 143°
2026-05-07 15:47 49.38292 16.13036 28350 ft 397 kts 143°
2026-05-07 15:48 49.36274 16.15905 27827 ft 394 kts 143°
2026-05-07 15:48 49.34268 16.18754 27320 ft 391 kts 143°
2026-05-07 15:48 49.32272 16.21571 26786 ft 388 kts 145°
2026-05-07 15:48 49.30137 16.23997 26363 ft 377 kts 154°
2026-05-07 15:49 49.27853 16.25851 25930 ft 369 kts 159°
2026-05-07 15:49 49.25545 16.27556 25464 ft 367 kts 159°
2026-05-07 15:49 49.23248 16.29256 25011 ft 366 kts 159°
2026-05-07 15:49 49.20960 16.30950 24610 ft 364 kts 159°
2026-05-07 15:50 49.18683 16.32637 24202 ft 363 kts 159°
2026-05-07 15:50 49.16418 16.34311 23812 ft 361 kts 159°
2026-05-07 15:50 49.14162 16.35977 23415 ft 359 kts 159°
2026-05-07 15:50 49.11917 16.37637 22939 ft 358 kts 159°
2026-05-07 15:51 49.09675 16.39290 22457 ft 357 kts 159°
2026-05-07 15:51 49.07441 16.40930 21928 ft 356 kts 159°
2026-05-07 15:51 49.05210 16.42568 21442 ft 356 kts 159°
2026-05-07 15:51 49.02984 16.44201 20958 ft 355 kts 159°
2026-05-07 15:52 49.00762 16.45829 20465 ft 354 kts 158°
2026-05-07 15:52 48.98541 16.47456 19958 ft 354 kts 158°
2026-05-07 15:52 48.96331 16.49076 19487 ft 352 kts 158°
2026-05-07 15:52 48.94132 16.50687 19046 ft 350 kts 158°
2026-05-07 15:53 48.91939 16.52293 18587 ft 349 kts 158°
2026-05-07 15:53 48.89750 16.53895 18114 ft 349 kts 158°
2026-05-07 15:53 48.87567 16.55491 17611 ft 348 kts 158°
2026-05-07 15:53 48.85391 16.57073 17117 ft 346 kts 158°
2026-05-07 15:54 48.83224 16.58648 16657 ft 344 kts 158°
2026-05-07 15:54 48.81067 16.60213 16190 ft 343 kts 158°
2026-05-07 15:54 48.78911 16.61725 15738 ft 340 kts 162°
2026-05-07 15:54 48.76658 16.62715 15292 ft 335 kts 171°
2026-05-07 15:55 48.74381 16.63462 14843 ft 335 kts 171°
2026-05-07 15:55 48.72105 16.64206 14402 ft 334 kts 170°
2026-05-07 15:55 48.69841 16.64948 13963 ft 333 kts 170°
2026-05-07 15:55 48.67580 16.65689 13518 ft 332 kts 170°
2026-05-07 15:56 48.65327 16.66427 13068 ft 330 kts 170°
2026-05-07 15:56 48.63088 16.67160 12621 ft 329 kts 170°
2026-05-07 15:56 48.60859 16.67889 12186 ft 327 kts 170°
2026-05-07 15:56 48.58644 16.68618 11760 ft 325 kts 170°
2026-05-07 15:57 48.56440 16.69340 11340 ft 323 kts 172°
2026-05-07 15:57 48.54235 16.69326 10945 ft 315 kts 197°
2026-05-07 15:57 48.52302 16.67892 10534 ft 310 kts 220°
2026-05-07 15:57 48.50987 16.65397 10259 ft 299 kts 246°
2026-05-07 15:58 48.50494 16.62514 10050 ft 281 kts 263°
2026-05-07 15:58 48.50298 16.59580 9531 ft 275 kts 265°
2026-05-07 15:58 48.50383 16.56774 8972 ft 271 kts 286°
2026-05-07 15:58 48.51284 16.54322 8405 ft 269 kts 310°
2026-05-07 15:59 48.52519 16.52203 7882 ft 269 kts 301°
2026-05-07 15:59 48.53152 16.49594 7571 ft 265 kts 276°
2026-05-07 15:59 48.52996 16.46840 7215 ft 266 kts 252°
2026-05-07 15:59 48.52107 16.44411 6864 ft 268 kts 229°
2026-05-07 16:00 48.50622 16.42728 6540 ft 270 kts 205°
2026-05-07 16:00 48.48787 16.42129 6229 ft 273 kts 180°
2026-05-07 16:00 48.46930 16.42708 5919 ft 274 kts 161°
2026-05-07 16:00 48.45156 16.43646 5784 ft 266 kts 164°
2026-05-07 16:01 48.43410 16.44438 5654 ft 258 kts 166°
2026-05-07 16:01 48.41715 16.45156 5523 ft 249 kts 166°
2026-05-07 16:01 48.40616 16.45622 5384 ft 245 kts 166°
2026-05-07 16:01 48.39006 16.46310 5252 ft 237 kts 166°
2026-05-07 16:02 48.37453 16.46975 5131 ft 227 kts 166°
2026-05-07 16:02 48.35960 16.47614 5032 ft 221 kts 167°
2026-05-07 16:02 48.34482 16.48245 5000 ft 221 kts 167°
2026-05-07 16:02 48.32999 16.48877 4826 ft 221 kts 166°
2026-05-07 16:03 48.31523 16.49508 4555 ft 220 kts 166°
2026-05-07 16:03 48.30055 16.50134 4266 ft 218 kts 166°
2026-05-07 16:03 48.28598 16.50755 3975 ft 217 kts 166°
2026-05-07 16:03 48.27153 16.51371 3693 ft 215 kts 164°
2026-05-07 16:04 48.25719 16.51982 3407 ft 214 kts 164°
2026-05-07 16:04 48.24295 16.52588 3122 ft 210 kts 164°
2026-05-07 16:04 48.22913 16.53175 2873 ft 200 kts 164°
2026-05-07 16:04 48.21611 16.53729 2577 ft 188 kts 164°
2026-05-07 16:05 48.20426 16.54232 2365 ft 166 kts 164°
2026-05-07 16:05 48.19362 16.54685 2140 ft 155 kts 164°
2026-05-07 16:05 48.18339 16.55119 1932 ft 151 kts 164°
2026-05-07 16:05 48.17333 16.55546 1733 ft 149 kts 165°
2026-05-07 16:06 48.16339 16.55967 1530 ft 148 kts 165°
2026-05-07 16:06 48.15350 16.56386 1343 ft 146 kts 166°
2026-05-07 16:06 48.14375 16.56799 1120 ft 146 kts 166°
2026-05-07 16:06 48.13393 16.57214 929 ft 148 kts 167°
2026-05-07 16:07 48.12401 16.57636 730 ft 148 kts 166°
2026-05-07 16:07 48.11450 16.58040 617 ft 128 kts 166°
2026-05-07 16:07 48.10763 16.58333 615 ft 78 kts 164°
2026-05-07 16:07 48.10408 16.58470 610 ft 40 kts 175°
2026-05-07 16:08 48.10178 16.58417 613 ft 17 kts 194°
2026-05-07 16:08 48.10113 16.58329 614 ft 13 kts 244°
2026-05-07 16:08 48.10105 16.58199 617 ft 14 kts 316°
2026-05-07 16:08 48.10200 16.58151 616 ft 15 kts 344°
2026-05-07 16:09 48.10308 16.58106 620 ft 17 kts 344°
2026-05-07 16:09 48.10421 16.58057 613 ft 18 kts 344°
2026-05-07 16:09 48.10548 16.58003 611 ft 19 kts 343°
2026-05-07 16:09 48.10683 16.57944 609 ft 21 kts 345°
2026-05-07 16:10 48.10828 16.57885 619 ft 22 kts 344°
2026-05-07 16:10 48.10980 16.57821 615 ft 24 kts 344°
2026-05-07 16:10 48.11110 16.57765 614 ft 17 kts 339°
2026-05-07 16:10 48.11187 16.57632 611 ft 18 kts 294°
2026-05-07 16:11 48.11241 16.57456 611 ft 19 kts 295°
2026-05-07 16:11 48.11302 16.57269 615 ft 21 kts 296°
2026-05-07 16:11 48.11368 16.57070 612 ft 22 kts 296°
2026-05-07 16:11 48.11434 16.56866 621 ft 22 kts 295°
2026-05-07 16:12 48.11502 16.56660 609 ft 22 kts 297°
2026-05-07 16:12 48.11569 16.56457 616 ft 21 kts 299°
2026-05-07 16:12 48.11633 16.56258 616 ft 21 kts 295°
2026-05-07 16:12 48.11698 16.56058 617 ft 22 kts 296°
2026-05-07 16:13 48.11764 16.55856 621 ft 22 kts 296°
2026-05-07 16:13 48.11830 16.55652 609 ft 22 kts 295°
2026-05-07 16:13 48.11891 16.55443 622 ft 22 kts 288°
2026-05-07 16:13 48.11936 16.55313 618 ft 11 kts 330°
2026-05-07 16:14 48.12003 16.55342 611 ft 10 kts 26°
2026-05-07 16:14 48.12061 16.55385 609 ft 7 kts 25°
2026-05-07 16:14 48.12089 16.55354 609 ft 5 kts 294°
2026-05-07 16:14 48.12098 16.55324 617 ft 2 kts 296°
2026-05-07 16:15 48.12099 16.55319 616 ft 0 kts 296°